Location: Buckeye Ditch
(40.9104°N, 122.9517°W)
Time: 12:42:57
(UTC+00:00)

Explorer 7 - Pass Details

Date: 25 May 2025
Orbit: 445 x 571 km, 50.3° (Epoch: 22 June)

Event Time Altitude Azimuth Distance (km) Brightness Sun altitude
Rises 11:51:19 0° 299° (WNW) 2,531 10.0 -9.4°
Reaches altitude 10° 11:53:51 10° 317° (NW) 1,676 9.2 -9.0°
Maximum altitude 11:56:47 21° 7° (N) 1,176 9.1 -8.6°
Drops below altitude 10° 11:59:49 10° 58° (ENE) 1,736 11.1 -8.1°
Sets 12:02:29 0° 75° (ENE) 2,652 11.8 -7.7°
